Regional Weather Roundup
Issued by NWS

Home | Current Version | Previous Version | Graphics & Text | Print | Product List | Glossary Off
Versions: 1 2 3 4 5 6 7 8 9 10 11 12 13 14 15 16 17 18 19 20 21 22 23 24 25 26 27 28 29 30 31 32 33 34 35 36 37 38 39 40 41 42 43 44 45 46 47 48 49 50

000
ASUS43 KDTX 291010
RWRMI
MICHIGAN HOURLY REGIONAL WEATHER ROUNDUP
NATIONAL WEATHER SERVICE DETROIT/PONTIAC MI
600 AM EDT FRI MAY 29 2015

NOTE: "FAIR" INDICATES FEW OR NO CLOUDS BELOW 12,000 FEET WITH NO
SIGNIFICANT WEATHER AND/OR OBSTRUCTION TO VISIBILITY.

MIZ047>049-052>055-059>063-066>070-074>076-081>083-291100-
SOUTHEAST LOWER MICHIGAN

CITY           SKY/WX    TMP DP  RH WIND       PRES   REMARKS
ADRIAN         PTCLDY    60  56  86 E3        30.16S
ALMA           MOCLDY    59  55  86 CALM      30.12F
ANN ARBOR      PTCLDY    58  53  84 NE3       30.16S
BAD AXE        PTCLDY    59  49  71 SE6       30.17S
CARO           PTCLDY    61  53  74 SE7       30.15S
DETROIT CITY   MOCLDY    62  53  72 E3        30.17S
DETROIT        CLOUDY    64  53  67 CALM      30.17S
FLINT          PTCLDY    63  51  65 S5        30.15F
GROSSE ILE     MOCLDY    64  57  77 CALM      30.15S
HILLSDALE      CLEAR     61  58  89 SE3       30.15F
HOWELL         PTCLDY    60  51  72 SE7       30.15F

CITY           SKY/WX    TMP DP  RH WIND       PRES   REMARKS
JACKSON        CLEAR     58  53  84 SE5       30.15S
LAMBERTVILLE   CLEAR     61  55  82 CALM      30.16R
LANSING        PTCLDY    62  52  69 SE9       30.13F
LAPEER         FAIR      62  52  69 SE3       30.17S
MASON          CLEAR     58  52  82 SE3       30.14S
MONROE         PTCLDY    63  59  88 CALM      30.15R
MT. CLEMENS    PTCLDY    59  54  83 E3        30.15F
PONTIAC        MOCLDY    62  53  72 SE5       30.17S
PORT HOPE        N/A     62  50  64 S8        30.15S
PORT HURON     PTCLDY    57  50  77 SE5       30.18S
TRI CITIES     PTCLDY    63  51  65 SE10      30.13F
MIDLAND        FAIR      63  51  65 SE5       30.12S
TROY           MOCLDY    63  53  69 CALM      30.19R
SAGINAW HB     PTCLDY    63  52  67 SE8       30.13F
$$
MIZ043>046-050>051-056>058-064>065-071>073-077>080-291100-
SOUTHWEST LOWER MICHIGAN

CITY           SKY/WX    TMP DP  RH WIND       PRES   REMARKS
BATTLE CREEK   PTCLDY    63  55  75 SE7       30.13S
BIG RAPIDS     CLOUDY    61  52  73 S5        30.09F
COLDWATER      CLEAR     61  55  83 SE6       30.13S
FREMONT        FAIR      63  55  74 SE5       30.07F
HOLLAND        MOCLDY    64  56  75 SE7       30.08F
GRAND RAPIDS   PTCLDY    63  55  75 S9        30.10F
IONIA          FAIR      62  54  75 S7        30.10F
KALAMAZOO      PTCLDY    63  56  78 SE3       30.12S
LUDINGTON      CLOUDY    68  58  68 SE6       30.05F
MARSHALL       CLEAR     61  56  82 SE5       30.13S
MOUNT PLEASANT MOCLDY    59  53  83 CALM      30.11F
MUSKEGON       CLOUDY    67  56  67 SE12      30.06F
SOUTH HAVEN    MOCLDY    65  57  75 SE5       30.07F
$$
MIZ016>042-291100-
NORTHERN LOWER MICHIGAN

CITY           SKY/WX    TMP DP  RH WIND       PRES   REMARKS
ALPENA         PTCLDY    58  54  86 S7        30.13F
BEAVER ISLAND  CLOUDY    60  56  87 S7        30.06F
BELLAIRE       MOCLDY    63  55  75 S3        30.08F
CADILLAC       MOCLDY    64  54  70 S8        30.09F
CHARLEVOIX     CLOUDY    61  58  88 SE3       30.10S
FRANKFORT      CLOUDY    68  53  58 SE8       30.04F
GAYLORD        MOCLDY    61  57  87 S7        30.12F
GRAYLING       MOCLDY    55  52  90 CALM      30.12F
HARBOR SPRINGS CLOUDY    60  56  85 CALM      30.08F
HOUGHTON LAKE  PTCLDY    58  52  80 E3        30.12F
MANISTEE       CLOUDY    61  54  77 SE5       30.06F
OSCODA         PTCLDY    59  55  87 CALM      30.14S
PELLSTON       CLOUDY    55  54  96 SE5       30.09F
ROGERS CITY    MOCLDY    63  57  83 S9        30.12S
TRAVERSE CITY  MOCLDY    62  56  80 CALM      30.05F
$$
MIZ007>008-015-291100-
EASTERN UPPER MICHIGAN

CITY           SKY/WX    TMP DP  RH WIND       PRES   REMARKS
KINROSS        PTCLDY    52  50  93 SE6       30.09S
MACKINAC ISLAN MOCLDY    56  54  95 SE7       30.08S
NEWBERRY       MOCLDY    55  53  92 S8        30.04F
S. S. MARIE    MOCLDY    52  50  93 E3        30.09F
MUNISING         N/A     56  51  84 SW7       30.01F
$$
MIZ004>006-011>014-085-291100-
CENTRAL UPPER MICHIGAN

CITY           SKY/WX    TMP DP  RH WIND       PRES   REMARKS
MANISTIQUE     MOCLDY    51  49  95 SE7       30.04F FOG
ESCANABA       MOCLDY    52  48  87 SE6       30.00F
MENOMINEE      CLOUDY    63  54  72 S8        29.99F
SAWYER-GWINN   MOCLDY    55  51  84 S8        29.99F
$$
MIZ001>003-009>011-084-291100-
WESTERN UPPER MICHIGAN

CITY           SKY/WX    TMP DP  RH WIND       PRES   REMARKS
IRON MOUNTAIN  MOCLDY    58  55  90 SE5       29.98F
HOUGHTON       CLOUDY    61  54  77 SW6       29.92F
COPPER HARBOR    N/A     59  53  80 SW8       29.91F
IRONWOOD       CLOUDY    66  54  63 SW10G20   29.89S
$$

ABBREVIATIONS USED IN REMARKS
   TC - TEMPERATURE IN CELSIUS
  WCI - WIND CHILL INDEX
   HX - HEAT INDEX
  VSB - VISIBILITY



USA.gov is the U.S. government's official web portal to all federal, state and local government web resources and services.